[[{"header":{"parameterUnit":"m.s-1","parameterCategory":1,"la1":30.2991,"la2":30.254,"lo1":-89.0895,"lo2":-89.0444,"dy":0.0017,"dx":0.0017,"nx":28,"ny":28,"refTime":"2025-12-18T03:00:00:Z","depth":0,"parameterNumber":2,"parameterNumberName":"U-component_of_WINDS"},"data":[0,0,0,0,0,0,0,0,0,0,0,0,0,0,0,0,0,0,0,0,0,0,0,0,0,0,0,0,0,0,0,0,0,0,0,0,0,0,0,0,0,0,0,0,0,0,0,0,0,0,0,0,0,0,0,0,0,0,1.1976,1.1976,0,1.199,1.199,1.1991,1.1985,1.1985,1.1984,1.1984,1.1999,1.1999,1.2,0,0,0,0,0,0,0,0,0,0,0,0,0,1.1944,1.1945,1.1976,1.1976,1.1976,1.199,1.199,1.1991,1.1985,1.1985,1.1984,1.1984,1.1998,1.1999,1.2,0,0,0,0,0,0,0,0,0,0,0,0,0,1.1958,1.1945,1.1976,1.1975,1.1975,1.199,1.199,1.1991,1.1985,1.1985,1.1984,1.1984,1.1998,1.1999,1.2,1.2017,0,0,1.2003,1.2004,0,0,0,0,0,0,0,0,1.1957,1.1959,1.1975,1.1975,1.1975,1.1985,1.1985,1.1999,1.1985,1.1981,1.1984,1.1983,1.1995,1.1996,1.2,1.2017,1.2018,1.2003,1.2004,1.2004,1.2005,0,0,0,0,0,0,0,1.1956,1.1959,1.1981,1.1975,1.1975,1.1974,1.1976,1.1987,1.1991,1.1982,1.1981,1.1983,1.1994,1.1999,1.2,1.2018,1.2003,1.2004,1.2005,1.2005,1.2052,1.2052,0,0,0,0,0,0,1.1955,1.1958,1.1981,1.1982,1.1965,1.1975,1.1977,1.1983,1.199,1.1991,1.1984,1.1983,1.1997,1.1999,1.2,1.2021,1.2004,1.2005,1.2006,1.2051,1.2052,1.2053,0,0,0,0,0,0,1.1955,1.1957,1.198,1.197,1.1973,1.1976,1.1983,1.1983,1.1987,1.1992,1.1992,1.1987,1.1997,1.1999,1.2013,1.2021,1.2006,1.2007,1.205,1.2051,1.2052,1.2062,0,0,0,0,0,0,1.1954,1.1957,1.1963,1.197,1.1973,1.1992,1.1983,1.1984,1.1989,1.1988,1.1995,1.1996,1.1997,1.2012,1.2014,1.2023,1.2008,1.205,1.2051,1.2052,1.2061,1.2063,1.2065,0,0,0,0,0,1.1953,1.1965,1.1963,1.1966,1.1981,1.1993,1.1995,1.1995,1.199,1.1996,1.1999,1.1996,1.202,1.2013,1.2016,1.2025,1.2049,1.2051,1.2052,1.206,1.2062,1.2065,0,0,0,0,0,0,1.1958,1.1965,1.1964,1.1979,1.1985,1.1992,1.1999,1.1998,1.2006,1.2005,1.2005,1.2007,1.2021,1.2025,1.2016,1.2042,1.2034,1.2036,1.2039,1.2042,1.2044,1.2042,1.2009,0,0,0,0,0,1.1961,1.197,1.1976,1.1989,1.1992,1.1995,1.2001,1.2001,1.2007,1.201,1.2014,1.2021,1.203,1.2036,1.2045,1.2062,1.2063,1.2069,1.2071,1.2073,1.2074,1.2085,1.2087,1.2057,1.2057,1.2057,0,0,1.1967,1.1972,1.1977,1.199,1.1995,1.2005,1.1998,1.2008,1.2015,1.2011,1.2025,1.2029,1.2036,1.2052,1.2059,1.2055,1.2084,1.2075,1.2076,1.2077,1.2086,1.2089,1.2092,1.2058,1.2058,1.2058,0,0,1.1982,1.1987,1.1998,1.2004,1.2012,1.2015,1.2018,1.2025,1.2028,1.2042,1.2039,1.2049,1.2064,1.207,1.2075,1.2096,1.2093,1.2099,1.2109,1.2119,1.2122,1.2124,1.2131,1.2134,1.2101,1.2101,1.2101,0,1.1988,1.2003,1.2004,1.2015,1.2021,1.202,1.2031,1.2037,1.2047,1.2052,1.2047,1.2069,1.2073,1.2091,1.2096,1.21,1.2104,1.2098,1.2121,1.2123,1.2125,1.2133,1.2135,1.2101,1.2101,1.2101,1.2101,0,1.201,1.2021,1.2029,1.204,1.2047,1.2058,1.2062,1.2069,1.2069,1.2073,1.2088,1.2094,1.2105,1.2109,1.2109,1.2127,1.2125,1.2121,1.2113,1.2129,1.2136,1.2138,1.2102,1.2102,1.2102,1.2102,0,0,1.2027,1.2041,1.2044,1.2049,1.206,1.2068,1.208,1.2091,1.2097,1.2105,1.2115,1.213,1.2127,1.2133,1.2134,1.2143,1.216,1.2138,1.2138,1.2142,1.2181,1.2183,1.2186,1.2159,1.2159,1.216,1.218,0,1.2044,1.2065,1.2068,1.2086,1.2096,1.2096,1.2107,1.2115,1.2119,1.2128,1.2133,1.2143,1.2138,1.2142,1.2151,1.2156,1.2168,1.2155,1.2168,1.2169,1.2166,1.219,1.2192,1.2211,1.2183,1.2184,1.2184,0,1.2065,1.2075,1.2094,1.2105,1.2109,1.2119,1.213,1.2139,1.2148,1.2151,1.2159,1.2159,1.2172,1.2165,1.2183,1.2174,1.2181,1.2184,1.2185,1.2186,1.2177,1.2191,1.2217,1.222,1.2188,1.2188,1.2187,0,1.2075,1.2093,1.2108,1.2113,1.2125,1.2132,1.2138,1.2147,1.2154,1.2164,1.2168,1.218,1.2186,1.2195,1.2199,1.2193,1.2218,1.221,1.222,1.222,1.2224,1.2224,1.2251,1.2229,1.2229,1.2229,1.2229,0,1.2093,1.2105,1.2113,1.2122,1.2136,1.214,1.2154,1.2159,1.2168,1.2178,1.2179,1.2189,1.2194,1.2205,1.2208,1.2223,1.2226,1.2229,1.2229,1.2228,1.2228,1.2231,1.223,1.223,1.223,1.223,1.223,0,1.2106,1.2112,1.2128,1.2139,1.2142,1.2152,1.2162,1.2171,1.2176,1.2189,1.2193,1.22,1.2213,1.2219,1.2234,1.2237,1.2254,1.2254,1.2251,1.2251,1.2261,1.226,1.2291,1.2296,1.2271,1.2271,1.2272,0,1.2116,1.2126,1.2139,1.2146,1.2152,1.2163,1.2171,1.2176,1.2184,1.2197,1.2205,1.2218,1.2228,1.2249,1.2256,1.2269,1.2269,1.2279,1.227,1.2269,1.2269,1.2268,1.2269,1.228,1.228,1.228,1.2281,0,1.2134,1.2137,1.2148,1.2161,1.217,1.218,1.219,1.2196,1.2202,1.2212,1.2225,1.2234,1.2251,1.2264,1.2277,1.2283,1.2283,1.2284,1.2287,1.2285,1.2283,1.2284,1.2255,1.2282,1.2282,1.2282,1.2282,1.2282,1.2146,1.2155,1.2166,1.2178,1.2187,1.2196,1.2206,1.2213,1.2224,1.2238,1.2241,1.2256,1.2267,1.2285,1.2292,1.2304,1.2301,1.2305,1.2306,1.2307,1.2308,1.2282,1.2306,1.2306,1.2306,1.2306,1.2306,0,1.2163,1.2171,1.2183,1.2197,1.2207,1.2208,1.2219,1.2228,1.2241,1.2251,1.2262,1.2279,1.2292,1.2302,1.2315,1.2323,1.2324,1.2327,1.2326,1.2327,1.2309,1.2305,1.2326,1.2326,1.2326,1.2326,1.2326,1.2326,1.2174,1.2189,1.2194,1.2214,1.2222,1.2236,1.2243,1.2252,1.2261,1.2279,1.2291,1.2297,1.2307,1.2322,1.2335,1.2337,1.2342,1.2345,1.2348,1.233,1.2328,1.2326,1.2322,1.2347,1.2347,1.2364,1.2365,1.2365]},{"header":{"parameterUnit":"m.s-1","parameterCategory":1,"la1":30.2991,"la2":30.254,"lo1":-89.0895,"lo2":-89.0444,"dy":0.0017,"dx":0.0017,"nx":28,"ny":28,"refTime":"2025-12-18T03:00:00:Z","depth":0,"parameterNumber":3,"parameterNumberName":"V-component_of_WINDS"},"data":[0,0,0,0,0,0,0,0,0,0,0,0,0,0,0,0,0,0,0,0,0,0,0,0,0,0,0,0,0,0,0,0,0,0,0,0,0,0,0,0,0,0,0,0,0,0,0,0,0,0,0,0,0,0,0,0,0,0,-7.0104,-7.0106,0,-7.0309,-7.0311,-7.0314,-7.0249,-7.0245,-7.024,-7.0236,-7.0442,-7.0452,-7.0461,0,0,0,0,0,0,0,0,0,0,0,0,0,-6.9655,-6.9663,-7.0104,-7.0107,-7.0109,-7.0309,-7.0311,-7.0314,-7.025,-7.0244,-7.0239,-7.0234,-7.0439,-7.0451,-7.0462,0,0,0,0,0,0,0,0,0,0,0,0,0,-6.9854,-6.9666,-7.0103,-7.0101,-7.0103,-7.0308,-7.0312,-7.0315,-7.0251,-7.0244,-7.0238,-7.0232,-7.0436,-7.0449,-7.0464,-7.0683,0,0,-7.0507,-7.0514,0,0,0,0,0,0,0,0,-6.9842,-6.987,-7.0099,-7.0102,-7.0104,-7.0247,-7.0229,-7.0438,-7.0252,-7.0195,-7.0236,-7.0228,-7.0382,-7.0401,-7.0453,-7.0692,-7.0701,-7.0509,-7.0517,-7.0523,-7.0528,0,0,0,0,0,0,0,-6.9829,-6.9861,-7.0185,-7.0102,-7.0105,-7.0089,-7.011,-7.0268,-7.0322,-7.0199,-7.0195,-7.022,-7.0382,-7.044,-7.0458,-7.0704,-7.0508,-7.0521,-7.053,-7.0535,-7.1135,-7.1142,0,0,0,0,0,0,-6.9814,-6.985,-7.0178,-7.0191,-6.9955,-7.0102,-7.0126,-7.0207,-7.0321,-7.0332,-7.0226,-7.0216,-7.0418,-7.0441,-7.0465,-7.0731,-7.0523,-7.0537,-7.0545,-7.1128,-7.1136,-7.1144,0,0,0,0,0,0,-6.9804,-6.9844,-7.017,-7.002,-7.006,-7.0117,-7.0209,-7.0215,-7.0272,-7.0341,-7.035,-7.0274,-7.0414,-7.0445,-7.063,-7.0737,-7.0543,-7.0556,-7.1119,-7.113,-7.114,-7.1263,0,0,0,0,0,0,-6.9792,-6.9841,-6.9925,-7.0022,-7.0068,-7.0333,-7.0216,-7.0224,-7.0297,-7.0287,-7.0389,-7.0399,-7.0411,-7.0609,-7.0644,-7.0753,-7.0567,-7.111,-7.1124,-7.1137,-7.1249,-7.1276,-7.13,0,0,0,0,0,-6.9776,-6.995,-6.9929,-6.9969,-7.0175,-7.0339,-7.0365,-7.0377,-7.0306,-7.0391,-7.0436,-7.0396,-7.0719,-7.0628,-7.0667,-7.0782,-7.1103,-7.112,-7.1136,-7.1238,-7.1271,-7.1299,0,0,0,0,0,0,-6.9862,-6.9962,-6.9941,-7.0152,-7.0238,-7.0328,-7.0436,-7.0411,-7.0518,-7.0504,-7.0513,-7.0536,-7.0727,-7.0772,-7.0669,-7.1001,-7.09,-7.0925,-7.0965,-7.0997,-7.1021,-7.1007,-7.0579,0,0,0,0,0,-6.9906,-7.0032,-7.0112,-7.029,-7.0335,-7.0378,-7.045,-7.0452,-7.054,-7.0576,-7.0633,-7.072,-7.0841,-7.0921,-7.1036,-7.1255,-7.1277,-7.1353,-7.1378,-7.1399,-7.1421,-7.1542,-7.1577,-7.1199,-7.1198,-7.1198,0,0,-6.9997,-7.0068,-7.0146,-7.031,-7.0376,-7.0506,-7.0409,-7.055,-7.0647,-7.0597,-7.0776,-7.0822,-7.0919,-7.1123,-7.1215,-7.1167,-7.153,-7.142,-7.1435,-7.1447,-7.1563,-7.1598,-7.163,-7.121,-7.1208,-7.1206,0,0,-7.0231,-7.0296,-7.0453,-7.0523,-7.0625,-7.0653,-7.0691,-7.0786,-7.0815,-7.0995,-7.0961,-7.1075,-7.1283,-7.1355,-7.1419,-7.1681,-7.1649,-7.1718,-7.185,-7.1968,-7.1998,-7.2024,-7.212,-7.2154,-7.1739,-7.174,-7.174,0,-7.0331,-7.0527,-7.0536,-7.0682,-7.0755,-7.0718,-7.0877,-7.0943,-7.1078,-7.1129,-7.1073,-7.1335,-7.1397,-7.1618,-7.1683,-7.1735,-7.1779,-7.1707,-7.1993,-7.202,-7.2045,-7.2136,-7.2172,-7.1748,-7.1747,-7.1746,-7.1745,0,-7.0646,-7.0782,-7.0897,-7.103,-7.1116,-7.1267,-7.1299,-7.1385,-7.1379,-7.1413,-7.1598,-7.1672,-7.1803,-7.1854,-7.1849,-7.2076,-7.2043,-7.199,-7.1889,-7.2089,-7.2175,-7.221,-7.1759,-7.1756,-7.1754,-7.1752,0,0,-7.094,-7.1078,-7.112,-7.1182,-7.1293,-7.1398,-7.1548,-7.1677,-7.1751,-7.1845,-7.1972,-7.2149,-7.2102,-7.2174,-7.2177,-7.228,-7.2486,-7.2215,-7.2217,-7.2264,-7.2742,-7.2783,-7.2823,-7.2465,-7.2471,-7.2477,-7.2735,0,-7.1185,-7.145,-7.1464,-7.1704,-7.1831,-7.1798,-7.1928,-7.2011,-7.2046,-7.2158,-7.2196,-7.2324,-7.225,-7.2294,-7.2395,-7.244,-7.2582,-7.2421,-7.2583,-7.2589,-7.2562,-7.2868,-7.2911,-7.3151,-7.2768,-7.2774,-7.2778,0,-7.1506,-7.1613,-7.1867,-7.1962,-7.2016,-7.2133,-7.2254,-7.2361,-7.2454,-7.2472,-7.2555,-7.2543,-7.2696,-7.2589,-7.2801,-7.2691,-7.2758,-7.279,-7.28,-7.2817,-7.2697,-7.2895,-7.3227,-7.3264,-7.283,-7.2826,-7.2822,0,-7.1698,-7.1905,-7.2084,-7.2137,-7.2252,-7.2336,-7.2387,-7.2474,-7.2551,-7.2656,-7.2706,-7.2827,-7.2893,-7.2987,-7.3008,-7.2928,-7.3221,-7.3115,-7.3241,-7.3241,-7.3306,-7.3302,-7.3656,-7.3345,-7.3345,-7.3344,-7.3343,0,-7.1971,-7.2128,-7.2172,-7.2283,-7.2458,-7.2472,-7.2645,-7.269,-7.2768,-7.2887,-7.2864,-7.2975,-7.2995,-7.3112,-7.3128,-7.3303,-7.3332,-7.3352,-7.3355,-7.3356,-7.3353,-7.3401,-7.3386,-7.3354,-7.3352,-7.335,-7.3348,0,-7.2216,-7.2251,-7.2445,-7.2539,-7.2566,-7.2692,-7.2772,-7.2878,-7.2911,-7.3061,-7.3097,-7.3149,-7.3285,-7.3315,-7.3475,-7.3486,-7.3694,-7.3679,-7.3664,-7.3663,-7.3789,-7.3777,-7.4187,-7.4243,-7.3894,-7.3897,-7.39,0,-7.2389,-7.2509,-7.2617,-7.2696,-7.2752,-7.2879,-7.2958,-7.2976,-7.306,-7.3176,-7.3268,-7.3401,-7.3509,-7.3727,-7.3779,-7.3902,-7.3891,-7.4027,-7.391,-7.3907,-7.3896,-7.389,-7.3903,-7.4049,-7.4053,-7.4056,-7.4059,0,-7.2693,-7.2705,-7.2821,-7.2946,-7.3042,-7.3139,-7.3232,-7.3298,-7.3328,-7.3423,-7.3563,-7.3647,-7.3812,-7.3945,-7.4069,-7.412,-7.4096,-7.4095,-7.4131,-7.4134,-7.4121,-7.4132,-7.3727,-7.4086,-7.4083,-7.4081,-7.408,-7.4079,-7.2909,-7.3015,-7.3109,-7.324,-7.3312,-7.34,-7.3505,-7.3552,-7.3669,-7.3806,-7.3809,-7.3962,-7.4052,-7.4216,-7.4276,-7.4395,-7.4353,-7.4405,-7.4418,-7.4431,-7.4444,-7.41,-7.4417,-7.4416,-7.4416,-7.4415,-7.4414,0,-7.3214,-7.3272,-7.3393,-7.3525,-7.3629,-7.3597,-7.3698,-7.3787,-7.3922,-7.4009,-7.4117,-7.4278,-7.4407,-7.4469,-7.4597,-7.4681,-7.4673,-7.4714,-7.4709,-7.4722,-7.4473,-7.443,-7.4719,-7.4719,-7.4719,-7.4719,-7.4719,-7.4719,-7.3385,-7.3565,-7.3588,-7.3804,-7.386,-7.4012,-7.4073,-7.4154,-7.4224,-7.4406,-7.4514,-7.4554,-7.4631,-7.4765,-7.4883,-7.4897,-7.4946,-7.4994,-7.5004,-7.477,-7.4739,-7.471,-7.467,-7.5004,-7.5004,-7.5243,-7.5245,-7.5247]}]]